,,Stat6,,Stat2,,Stat8,,Stat9,,Stat10,,Wind1,,Wind1,
time,status,PA1M_AVG,status,PR1M_SUM,status,RH1M_AVG,status,SR1M_AVG,status,TA1M_AVG,status,W1dAve1m,status,W1sAve1m,
2009-01-25, 00:00:00,VALID,916.998,VALID,0,VALID,99.4687,VALID,-0.0339617,VALID,20.1813,VALID,154,VALID,0.373857,
2009-01-25, 00:01:00,VALID,916.997,VALID,0,VALID,99.367,VALID,-0.0339617,VALID,20.1613,VALID,145,VALID,0.401563,
2009-01-25, 00:02:00,VALID,916.979,VALID,0,VALID,99.2627,VALID,-0.0339617,VALID,20.1224,VALID,126,VALID,0.823933,
2009-01-25, 00:03:00,VALID,916.949,VALID,0,VALID,99.3873,VALID,-0.0679233,VALID,20.0894,VALID,133,VALID,0.523438,
2009-01-25, 00:04:00,VALID,916.911,VALID,0,VALID,99.4636,VALID,0,VALID,20.0408,VALID,130,VALID,0,
2009-01-25, 00:05:00,VALID,916.881,VALID,0,VALID,99.5005,VALID,-0.0509425,VALID,19.9993,VALID,130,VALID,0.000186012,
2009-01-25, 00:06:00,VALID,916.854,VALID,0,VALID,99.8385,VALID,-0.0509425,VALID,19.9796,VALID,145,VALID,0.000744048,
2009-01-25, 00:07:00,VALID,916.833,VALID,0,VALID,100,VALID,-0.0509425,VALID,19.9691,VALID,158,VALID,0,
2009-01-25, 00:08:00,VALID,916.811,VALID,0,VALID,99.9652,VALID,-0.0849042,VALID,19.9407,VALID,153,VALID,0,
2009-01-25, 00:09:00,VALID,916.82,VALID,0,VALID,100,VALID,-0.0339617,VALID,19.9175,VALID,145,VALID,0.223785,
2009-01-25, 00:10:00,VALID,916.813,VALID,0,VALID,100,VALID,-0.0509425,VALID,19.9082,VALID,131,VALID,0.286395,
2009-01-25, 00:11:00,VALID,916.804,VALID,0,VALID,100,VALID,0,VALID,19.8553,VALID,121,VALID,0.234933,
2009-01-25, 00:12:00,VALID,916.808,VALID,0,VALID,100,VALID,-0.0169808,VALID,19.8593,VALID,112,VALID,0.281064,
2009-01-25, 00:13:00,VALID,916.802,VALID,0,VALID,100,VALID,-0.0679233,VALID,19.8595,VALID,120,VALID,0.0130208,
2009-01-25, 00:14:00,VALID,916.811,VALID,0,VALID,100,VALID,-0.0509425,VALID,19.8755,VALID,123,VALID,0.000381098,
2009-01-25, 00:15:00,VALID,916.811,VALID,0,VALID,100,VALID,-0.0169808,VALID,19.911,VALID,125,VALID,0.108285,
2009-01-25, 00:16:00,VALID,916.801,VALID,0,VALID,100,VALID,-0.0169808,VALID,19.9499,VALID,124,VALID,0.6143,
2009-01-25, 00:17:00,VALID,916.793,VALID,0,VALID,100,VALID,-0.0679233,VALID,19.9696,VALID,125,VALID,0.185937,
2009-01-25, 00:18:00,VALID,916.771,VALID,0,VALID,99.9036,VALID,-0.0849042,VALID,19.9921,VALID,123,VALID,0.0958984,
2009-01-25, 00:19:00,VALID,916.769,VALID,0,VALID,99.882,VALID,-0.0169808,VALID,20.028,VALID,123,VALID,0.0106707,
2009-01-25, 00:20:00,VALID,916.766,VALID,0,VALID,99.5806,VALID,-0.0339617,VALID,20.0373,VALID,122,VALID,0.224466,
2009-01-25, 00:21:00,VALID,916.755,VALID,0,VALID,99.4649,VALID,-0.0509425,VALID,20.0537,VALID,120,VALID,0,
2009-01-25, 00:22:00,VALID,916.749,VALID,0,VALID,99.0631,VALID,-0.0169808,VALID,20.0153,VALID,120,VALID,0,
2009-01-25, 00:23:00,VALID,916.758,VALID,0,VALID,99.3021,VALID,-0.0679233,VALID,20.0026,VALID,120,VALID,0,
2009-01-25, 00:24:00,VALID,916.76,VALID,0,VALID,99.4891,VALID,-0.101885,VALID,20.0378,VALID,120,VALID,0,
2009-01-25, 00:25:00,VALID,916.782,VALID,0,VALID,99.4751,VALID,-0.101885,VALID,20.0602,VALID,120,VALID,0,
2009-01-25, 00:26:00,VALID,916.777,VALID,0,VALID,99.3568,VALID,-0.0679233,VALID,20.0824,VALID,120,VALID,0,
2009-01-25, 00:27:00,VALID,916.791,VALID,0,VALID,99.1826,VALID,-0.0509425,VALID,20.1059,VALID,123,VALID,0,
2009-01-25, 00:28:00,VALID,916.786,VALID,0,VALID,99.1254,VALID,-0.0509425,VALID,20.1186,VALID,138,VALID,0,
2009-01-25, 00:29:00,VALID,916.78,VALID,0,VALID,98.9919,VALID,-0.0509425,VALID,20.1386,VALID,138,VALID,0,
2009-01-25, 00:30:00,VALID,916.766,VALID,0,VALID,98.8355,VALID,-0.0339617,VALID,20.1481,VALID,174,VALID,0,
2009-01-25, 00:31:00,VALID,916.756,VALID,0,VALID,98.7121,VALID,-0.0169808,VALID,20.1314,VALID,198,VALID,0,
2009-01-25, 00:32:00,VALID,916.751,VALID,0,VALID,98.5773,VALID,-0.0169808,VALID,20.1087,VALID,200,VALID,0,
2009-01-25, 00:33:00,VALID,916.745,VALID,0,VALID,98.6536,VALID,0,VALID,20.0757,VALID,205,VALID,0,
2009-01-25, 00:34:00,VALID,916.747,VALID,0,VALID,98.8444,VALID,-0.0679233,VALID,20.08,VALID,204,VALID,0,
2009-01-25, 00:35:00,VALID,916.748,VALID,0,VALID,99.0326,VALID,-0.0509425,VALID,20.0857,VALID,196,VALID,0,
2009-01-25, 00:36:00,VALID,916.765,VALID,0,VALID,98.5786,VALID,-0.0679233,VALID,20.0802,VALID,196,VALID,0,
2009-01-25, 00:37:00,VALID,916.762,VALID,0,VALID,98.0865,VALID,-0.0169808,VALID,19.9502,VALID,196,VALID,0,
2009-01-25, 00:38:00,VALID,916.764,VALID,0,VALID,98.4349,VALID,-0.0509425,VALID,19.8977,VALID,196,VALID,0,
2009-01-25, 00:39:00,VALID,916.764,VALID,0,VALID,98.7325,VALID,-0.0849042,VALID,19.8975,VALID,196,VALID,0,
2009-01-25, 00:40:00,VALID,916.768,VALID,0,VALID,98.7693,VALID,-0.0509425,VALID,19.901,VALID,196,VALID,0,
2009-01-25, 00:41:00,VALID,916.757,VALID,0,VALID,98.7833,VALID,-0.0509425,VALID,19.8753,VALID,196,VALID,0,
2009-01-25, 00:42:00,VALID,916.751,VALID,0,VALID,98.6574,VALID,-0.0509425,VALID,19.7869,VALID,196,VALID,0,
2009-01-25, 00:43:00,VALID,916.754,VALID,0,VALID,98.7808,VALID,-0.0169808,VALID,19.7198,VALID,195,VALID,0,
2009-01-25, 00:44:00,VALID,916.726,VALID,0,VALID,99.4649,VALID,-0.0679233,VALID,19.6871,VALID,130,VALID,0,
2009-01-25, 00:45:00,VALID,916.697,VALID,0,VALID,99.9626,VALID,-0.0339617,VALID,19.7585,VALID,79,VALID,0,
2009-01-25, 00:46:00,VALID,916.677,VALID,0,VALID,99.8998,VALID,-0.0509425,VALID,19.7812,VALID,79,VALID,0,
2009-01-25, 00:47:00,VALID,916.658,VALID,0,VALID,99.9275,VALID,-0.0169808,VALID,19.8041,VALID,79,VALID,0,
2009-01-25, 00:48:00,VALID,916.652,VALID,0,VALID,100,VALID,-0.0849042,VALID,19.8363,VALID,82,VALID,0,
2009-01-25, 00:49:00,VALID,916.638,VALID,0,VALID,100,VALID,-0.0509425,VALID,19.8688,VALID,90,VALID,0,
2009-01-25, 00:50:00,VALID,916.634,VALID,0,VALID,99.9453,VALID,-0.0169808,VALID,19.8788,VALID,92,VALID,0,
2009-01-25, 00:51:00,VALID,916.626,VALID,0,VALID,99.9049,VALID,-0.0849042,VALID,19.8753,VALID,92,VALID,0,
2009-01-25, 00:52:00,VALID,916.62,VALID,0,VALID,99.8426,VALID,-0.0679233,VALID,19.8658,VALID,95,VALID,0,
2009-01-25, 00:53:00,VALID,916.626,VALID,0,VALID,99.8273,VALID,0.0339617,VALID,19.8253,VALID,95,VALID,0,
2009-01-25, 00:54:00,VALID,916.62,VALID,0,VALID,99.8769,VALID,0.0509425,VALID,19.7991,VALID,95,VALID,0,
2009-01-25, 00:55:00,VALID,916.624,VALID,0,VALID,100,VALID,0.0509425,VALID,19.7862,VALID,95,VALID,0,
2009-01-25, 00:56:00,VALID,916.637,VALID,0,VALID,99.8782,VALID,0.0169808,VALID,19.7535,VALID,95,VALID,0,
2009-01-25, 00:57:00,VALID,916.63,VALID,0,VALID,99.9855,VALID,0.0849042,VALID,19.7407,VALID,95,VALID,0,
2009-01-25, 00:58:00,VALID,916.636,VALID,0,VALID,100,VALID,0.0679233,VALID,19.7345,VALID,95,VALID,0,
2009-01-25, 00:59:00,VALID,916.628,VALID,0,VALID,100,VALID,0.0849042,VALID,19.7275,VALID,98,VALID,0,
2009-01-25, 01:00:00,VALID,916.63,VALID,0,VALID,100,VALID,0.0339617,VALID,19.7308,VALID,102,VALID,0,
2009-01-25, 01:01:00,VALID,916.632,VALID,0,VALID,100,VALID,0.0339617,VALID,19.7283,VALID,108,VALID,0.0809152,
2009-01-25, 01:02:00,VALID,916.615,VALID,0,VALID,100,VALID,0.0509425,VALID,19.744,VALID,121,VALID,0.19077,
2009-01-25, 01:03:00,VALID,916.613,VALID,0,VALID,100,VALID,0.0509425,VALID,19.7435,VALID,125,VALID,0.0703125,
2009-01-25, 01:04:00,VALID,916.611,VALID,0,VALID,100,VALID,0.0679233,VALID,19.7697,VALID,122,VALID,0.376635,
2009-01-25, 01:05:00,VALID,916.587,VALID,0,VALID,100,VALID,0.0509425,VALID,19.7994,VALID,126,VALID,1.02515,
2009-01-25, 01:06:00,VALID,916.589,VALID,0,VALID,100,VALID,0.0849042,VALID,19.8051,VALID,122,VALID,1.04451,
2009-01-25, 01:07:00,VALID,916.571,VALID,0,VALID,100,VALID,0.0509425,VALID,19.8386,VALID,124,VALID,0.782522,
2009-01-25, 01:08:00,VALID,916.573,VALID,0,VALID,100,VALID,-0.135847,VALID,19.8733,VALID,113,VALID,0.604421,
2009-01-25, 01:09:00,VALID,916.577,VALID,0,VALID,100,VALID,-0.135847,VALID,19.9057,VALID,114,VALID,0.0827415,
2009-01-25, 01:10:00,VALID,916.574,VALID,0,VALID,100,VALID,-0.135847,VALID,19.9085,VALID,117,VALID,0.806055,
2009-01-25, 01:11:00,VALID,916.563,VALID,0,VALID,100,VALID,-0.118866,VALID,19.9247,VALID,121,VALID,0.408306,
2009-01-25, 01:12:00,VALID,916.576,VALID,0,VALID,100,VALID,-0.101885,VALID,19.9379,VALID,126,VALID,0.451601,
2009-01-25, 01:13:00,VALID,916.567,VALID,0,VALID,100,VALID,-0.135847,VALID,19.9571,VALID,115,VALID,0.00672743,
2009-01-25, 01:14:00,VALID,916.576,VALID,0,VALID,100,VALID,-0.135847,VALID,19.9801,VALID,115,VALID,0,
2009-01-25, 01:15:00,VALID,916.58,VALID,0,VALID,100,VALID,-0.152827,VALID,19.9931,VALID,116,VALID,0,
2009-01-25, 01:16:00,VALID,916.579,VALID,0,VALID,100,VALID,-0.152827,VALID,20.0061,VALID,118,VALID,0,
2009-01-25, 01:17:00,VALID,916.585,VALID,0,VALID,100,VALID,-0.101885,VALID,20.032,VALID,118,VALID,0,
2009-01-25, 01:18:00,VALID,916.585,VALID,0,VALID,100,VALID,-0.101885,VALID,20.0448,VALID,118,VALID,0,
2009-01-25, 01:19:00,VALID,916.59,VALID,0,VALID,99.9868,VALID,-0.101885,VALID,20.045,VALID,118,VALID,0,
2009-01-25, 01:20:00,VALID,916.595,VALID,0,VALID,99.8375,VALID,-0.101885,VALID,20.0188,VALID,118,VALID,0,
2009-01-25, 01:21:00,VALID,916.6,VALID,0,VALID,99.6836,VALID,-0.118866,VALID,19.9799,VALID,118,VALID,0,
2009-01-25, 01:22:00,VALID,916.605,VALID,0,VALID,99.9725,VALID,-0.101885,VALID,20.0158,VALID,118,VALID,0.0493608,
2009-01-25, 01:23:00,VALID,916.593,VALID,0,VALID,100,VALID,-0.0169808,VALID,20.0757,VALID,118,VALID,0,
2009-01-25, 01:24:00,VALID,916.593,VALID,0,VALID,99.821,VALID,0,VALID,20.1728,VALID,118,VALID,0,
2009-01-25, 01:25:00,VALID,916.58,VALID,0,VALID,99.3759,VALID,0.0169808,VALID,20.2804,VALID,118,VALID,0,
2009-01-25, 01:26:00,VALID,916.565,VALID,0,VALID,98.913,VALID,-0.0169808,VALID,20.3356,VALID,114,VALID,0,
2009-01-25, 01:27:00,VALID,916.556,VALID,0,VALID,98.5544,VALID,-0.0169808,VALID,20.3872,VALID,109,VALID,0,
2009-01-25, 01:28:00,VALID,916.559,VALID,0,VALID,98.2086,VALID,-0.0169808,VALID,20.4067,VALID,105,VALID,0,
2009-01-25, 01:29:00,VALID,916.544,VALID,0,VALID,98.0026,VALID,0,VALID,20.4229,VALID,108,VALID,0,
2009-01-25, 01:30:00,VALID,916.535,VALID,0,VALID,97.8004,VALID,0,VALID,20.4102,VALID,117,VALID,0,
2009-01-25, 01:31:00,VALID,916.507,VALID,0,VALID,97.7025,VALID,0,VALID,20.4327,VALID,123,VALID,0.0891426,
2009-01-25, 01:32:00,VALID,916.483,VALID,0,VALID,97.5372,VALID,-0.0169808,VALID,20.4364,VALID,127,VALID,0.00117188,
2009-01-25, 01:33:00,VALID,916.458,VALID,0,VALID,97.4291,VALID,-0.0169808,VALID,20.4264,VALID,132,VALID,0.308594,
2009-01-25, 01:34:00,VALID,916.43,VALID,0,VALID,97.3045,VALID,-0.0339617,VALID,20.4234,VALID,130,VALID,0.281795,
2009-01-25, 01:35:00,VALID,916.409,VALID,0,VALID,97.2485,VALID,-0.0509425,VALID,20.404,VALID,132,VALID,0.0121094,
2009-01-25, 01:36:00,VALID,916.398,VALID,0,VALID,97.1773,VALID,-0.0339617,VALID,20.358,VALID,134,VALID,0.0783203,
2009-01-25, 01:37:00,VALID,916.379,VALID,0,VALID,97.1264,VALID,-0.0509425,VALID,20.3131,VALID,134,VALID,0,
2009-01-25, 01:38:00,VALID,916.369,VALID,0,VALID,97.3095,VALID,-0.0339617,VALID,20.2604,VALID,139,VALID,0,
2009-01-25, 01:39:00,VALID,916.354,VALID,0,VALID,97.4265,VALID,-0.0339617,VALID,20.2352,VALID,133,VALID,0,
2009-01-25, 01:40:00,VALID,916.339,VALID,0,VALID,97.6452,VALID,-0.0339617,VALID,20.186,VALID,127,VALID,0,
2009-01-25, 01:41:00,VALID,916.331,VALID,0,VALID,97.7622,VALID,0,VALID,20.1633,VALID,127,VALID,0,
2009-01-25, 01:42:00,VALID,916.32,VALID,0,VALID,97.8652,VALID,-0.0169808,VALID,20.1244,VALID,125,VALID,0,
2009-01-25, 01:43:00,VALID,916.33,VALID,0,VALID,97.9275,VALID,-0.0169808,VALID,20.0889,VALID,125,VALID,0,
2009-01-25, 01:44:00,VALID,916.32,VALID,0,VALID,98.075,VALID,-0.0169808,VALID,20.0502,VALID,130,VALID,0,
2009-01-25, 01:45:00,VALID,916.329,VALID,0,VALID,98.365,VALID,-0.0339617,VALID,20.03,VALID,133,VALID,0.0326891,
2009-01-25, 01:46:00,VALID,916.326,VALID,0,VALID,98.4031,VALID,0,VALID,20.0205,VALID,133,VALID,0,
2009-01-25, 01:47:00,VALID,916.333,VALID,0,VALID,98.4642,VALID,0,VALID,19.9881,VALID,137,VALID,0,
2009-01-25, 01:48:00,VALID,916.34,VALID,0,VALID,98.5252,VALID,-0.0339617,VALID,19.9359,VALID,154,VALID,0.12358,
2009-01-25, 01:49:00,VALID,916.338,VALID,0,VALID,98.6676,VALID,0,VALID,19.9067,VALID,157,VALID,0.197461,
2009-01-25, 01:50:00,VALID,916.346,VALID,0,VALID,98.7744,VALID,0,VALID,19.8613,VALID,158,VALID,0.162348,
2009-01-25, 01:51:00,VALID,916.356,VALID,0,VALID,98.88,VALID,-0.0169808,VALID,19.8059,VALID,133,VALID,0.0100446,
2009-01-25, 01:52:00,VALID,916.363,VALID,0,VALID,99.1343,VALID,-0.0339617,VALID,19.7707,VALID,150,VALID,0.128158,
2009-01-25, 01:53:00,VALID,916.362,VALID,0,VALID,99.4102,VALID,-0.0169808,VALID,19.7417,VALID,148,VALID,0,
2009-01-25, 01:54:00,VALID,916.367,VALID,0,VALID,99.6531,VALID,-0.0169808,VALID,19.7058,VALID,142,VALID,0.00093006,
2009-01-25, 01:55:00,VALID,916.345,VALID,0,VALID,99.8655,VALID,0,VALID,19.6861,VALID,157,VALID,0.335751,
2009-01-25, 01:56:00,VALID,916.328,VALID,0,VALID,100,VALID,0.0169808,VALID,19.6863,VALID,159,VALID,0.152778,
2009-01-25, 01:57:00,VALID,916.321,VALID,0,VALID,100,VALID,0,VALID,19.6931,VALID,147,VALID,0.557528,
2009-01-25, 01:58:00,VALID,916.293,VALID,0,VALID,100,VALID,-0.0169808,VALID,19.722,VALID,149,VALID,0.635901,
2009-01-25, 01:59:00,VALID,916.276,VALID,0,VALID,100,VALID,0,VALID,19.7575,VALID,138,VALID,0.235547,
2009-01-25, 02:00:00,VALID,916.253,VALID,0,VALID,100,VALID,-0.0169808,VALID,19.7902,VALID,152,VALID,0.0517805,
2009-01-25, 02:01:00,VALID,916.237,VALID,0,VALID,100,VALID,0,VALID,19.8096,VALID,141,VALID,0.189024,
2009-01-25, 02:02:00,VALID,916.223,VALID,0,VALID,100,VALID,0,VALID,19.8191,VALID,147,VALID,0.170422,
2009-01-25, 02:03:00,VALID,916.209,VALID,0,VALID,100,VALID,0,VALID,19.8383,VALID,153,VALID,0.115585,
2009-01-25, 02:04:00,VALID,916.208,VALID,0,VALID,100,VALID,0,VALID,19.8645,VALID,135,VALID,0.478051,
2009-01-25, 02:05:00,VALID,916.203,VALID,0,VALID,99.9362,VALID,0.0169808,VALID,19.8907,VALID,146,VALID,0.186719,
2009-01-25, 02:06:00,VALID,916.209,VALID,0,VALID,99.8718,VALID,-0.0169808,VALID,19.917,VALID,146,VALID,0.316311,
2009-01-25, 02:07:00,VALID,916.2,VALID,0,VALID,99.7459,VALID,-0.0339617,VALID,19.9818,VALID,147,VALID,0.672247,
2009-01-25, 02:08:00,VALID,916.22,VALID,0,VALID,99.4179,VALID,-0.0509425,VALID,20.0238,VALID,148,VALID,0.570884,
2009-01-25, 02:09:00,VALID,916.222,VALID,0,VALID,99.1635,VALID,-0.0169808,VALID,20.0438,VALID,149,VALID,0.269531,
2009-01-25, 02:10:00,VALID,916.221,VALID,0,VALID,99.0516,VALID,-0.0169808,VALID,20.0665,VALID,145,VALID,0.346217,
2009-01-25, 02:11:00,VALID,916.222,VALID,0,VALID,98.9486,VALID,-0.0339617,VALID,20.0824,VALID,157,VALID,0.234575,
2009-01-25, 02:12:00,VALID,916.222,VALID,0,VALID,98.8227,VALID,-0.0169808,VALID,20.0919,VALID,158,VALID,0.077753,
2009-01-25, 02:13:00,VALID,916.222,VALID,0,VALID,98.8355,VALID,-0.101885,VALID,20.0992,VALID,166,VALID,0.474746,
2009-01-25, 02:14:00,VALID,916.222,VALID,0,VALID,98.8482,VALID,-0.0849042,VALID,20.0924,VALID,160,VALID,0.631747,
2009-01-25, 02:15:00,VALID,916.222,VALID,0,VALID,98.8914,VALID,-0.0169808,VALID,20.0824,VALID,159,VALID,0.0957961,
2009-01-25, 02:16:00,VALID,916.222,VALID,0,VALID,98.9779,VALID,-0.0509425,VALID,20.0757,VALID,160,VALID,0.187128,
2009-01-25, 02:17:00,VALID,916.224,VALID,0,VALID,98.9957,VALID,-0.0849042,VALID,20.0897,VALID,152,VALID,0.109961,
2009-01-25, 02:18:00,VALID,916.225,VALID,0,VALID,98.9842,VALID,-0.0169808,VALID,20.0794,VALID,148,VALID,0.135789,
2009-01-25, 02:19:00,VALID,916.215,VALID,0,VALID,98.9525,VALID,-0.0509425,VALID,20.0857,VALID,143,VALID,0.556818,
2009-01-25, 02:20:00,VALID,916.196,VALID,0,VALID,98.9016,VALID,-0.0169808,VALID,20.1017,VALID,142,VALID,0.00872093,
2009-01-25, 02:21:00,VALID,916.209,VALID,0,VALID,98.8049,VALID,-0.0509425,VALID,20.1341,VALID,138,VALID,0.175521,
2009-01-25, 02:22:00,VALID,916.194,VALID,0,VALID,98.6549,VALID,-0.0509425,VALID,20.1703,VALID,146,VALID,0.0758929,
2009-01-25, 02:23:00,VALID,916.179,VALID,0,VALID,98.5532,VALID,-0.0339617,VALID,20.2023,VALID,141,VALID,0.251334,
2009-01-25, 02:24:00,VALID,916.182,VALID,0,VALID,98.4006,VALID,-0.0339617,VALID,20.2217,VALID,158,VALID,0.17359,
2009-01-25, 02:25:00,VALID,916.165,VALID,0,VALID,98.3319,VALID,-0.0849042,VALID,20.2612,VALID,159,VALID,0.109375,
2009-01-25, 02:26:00,VALID,916.175,VALID,0,VALID,98.2467,VALID,-0.0679233,VALID,20.2801,VALID,155,VALID,0.365999,
2009-01-25, 02:27:00,VALID,916.186,VALID,0,VALID,98.1895,VALID,-0.0509425,VALID,20.3001,VALID,161,VALID,0.27782,
2009-01-25, 02:28:00,VALID,916.193,VALID,0,VALID,98.1106,VALID,0,VALID,20.3093,VALID,158,VALID,0.0875,
2009-01-25, 02:29:00,VALID,916.196,VALID,0,VALID,98.1094,VALID,-0.0339617,VALID,20.3321,VALID,158,VALID,0.471608,
2009-01-25, 02:30:00,VALID,916.203,VALID,0,VALID,98.0636,VALID,0,VALID,20.3515,VALID,147,VALID,0.123355,
2009-01-25, 02:31:00,VALID,916.212,VALID,0,VALID,97.9695,VALID,0.0169808,VALID,20.381,VALID,138,VALID,0.387207,
2009-01-25, 02:32:00,VALID,916.196,VALID,0,VALID,97.8576,VALID,-0.0169808,VALID,20.4067,VALID,162,VALID,0.999273,
2009-01-25, 02:33:00,VALID,916.168,VALID,0,VALID,97.6923,VALID,-0.0169808,VALID,20.4421,VALID,160,VALID,0.285352,
2009-01-25, 02:34:00,VALID,916.151,VALID,0,VALID,97.541,VALID,-0.0339617,VALID,20.4848,VALID,140,VALID,0.412016,
2009-01-25, 02:35:00,VALID,916.141,VALID,0,VALID,97.3986,VALID,0,VALID,20.4976,VALID,123,VALID,0.265253,
2009-01-25, 02:36:00,VALID,916.126,VALID,0,VALID,97.368,VALID,0.0169808,VALID,20.4819,VALID,126,VALID,0.60332,
2009-01-25, 02:37:00,VALID,916.109,VALID,0,VALID,97.4291,VALID,-0.0169808,VALID,20.4654,VALID,138,VALID,0.675876,
2009-01-25, 02:38:00,VALID,916.082,VALID,0,VALID,97.5359,VALID,0.0169808,VALID,20.4292,VALID,134,VALID,0.841992,
2009-01-25, 02:39:00,VALID,916.07,VALID,0,VALID,97.7571,VALID,-0.0169808,VALID,20.4097,VALID,132,VALID,0.692116,
2009-01-25, 02:40:00,VALID,916.057,VALID,0,VALID,97.864,VALID,-0.0169808,VALID,20.3937,VALID,121,VALID,0.100694,
2009-01-25, 02:41:00,VALID,916.033,VALID,0,VALID,98.0089,VALID,0,VALID,20.3813,VALID,129,VALID,1.18968,
2009-01-25, 02:42:00,VALID,916.023,VALID,0,VALID,98.159,VALID,0,VALID,20.39,VALID,140,VALID,1.15141,
2009-01-25, 02:43:00,VALID,915.999,VALID,0,VALID,98.1208,VALID,-0.0169808,VALID,20.407,VALID,133,VALID,0.538715,
2009-01-25, 02:44:00,VALID,915.986,VALID,0,VALID,98.1513,VALID,-0.0169808,VALID,20.4035,VALID,141,VALID,0.837462,
2009-01-25, 02:45:00,VALID,915.973,VALID,0,VALID,98.159,VALID,-0.0169808,VALID,20.4067,VALID,139,VALID,0.364844,
2009-01-25, 02:46:00,VALID,915.954,VALID,0,VALID,98.1272,VALID,-0.0169808,VALID,20.397,VALID,143,VALID,1.08036,
2009-01-25, 02:47:00,VALID,915.956,VALID,0,VALID,98.0331,VALID,-0.0169808,VALID,20.4007,VALID,140,VALID,1.06179,
2009-01-25, 02:48:00,VALID,915.947,VALID,0,VALID,97.9352,VALID,-0.0339617,VALID,20.3807,VALID,138,VALID,1.1088,
2009-01-25, 02:49:00,VALID,915.922,VALID,0,VALID,97.8818,VALID,-0.101885,VALID,20.3777,VALID,142,VALID,1.14499,
2009-01-25, 02:50:00,VALID,915.933,VALID,0,VALID,97.8322,VALID,-0.0509425,VALID,20.378,VALID,133,VALID,0.668945,
2009-01-25, 02:51:00,VALID,915.916,VALID,0,VALID,97.836,VALID,-0.0169808,VALID,20.358,VALID,133,VALID,0.451172,
2009-01-25, 02:52:00,VALID,915.906,VALID,0,VALID,97.864,VALID,-0.0339617,VALID,20.3485,VALID,133,VALID,0.970274,
2009-01-25, 02:53:00,VALID,915.896,VALID,0,VALID,97.7864,VALID,-0.0339617,VALID,20.3453,VALID,126,VALID,0.438834,
2009-01-25, 02:54:00,VALID,915.89,VALID,0,VALID,97.6923,VALID,-0.0679233,VALID,20.3393,VALID,125,VALID,0.267442,
2009-01-25, 02:55:00,VALID,915.88,VALID,0,VALID,97.7444,VALID,-0.0679233,VALID,20.3096,VALID,133,VALID,0.544034,
2009-01-25, 02:56:00,VALID,915.872,VALID,0,VALID,97.7775,VALID,0,VALID,20.2999,VALID,137,VALID,0.726935,
2009-01-25, 02:57:00,VALID,915.859,VALID,0,VALID,97.7114,VALID,-0.0679233,VALID,20.2931,VALID,136,VALID,0.443056,
2009-01-25, 02:58:00,VALID,915.858,VALID,0,VALID,97.658,VALID,-0.0339617,VALID,20.2964,VALID,137,VALID,0.673781,
2009-01-25, 02:59:00,VALID,915.853,VALID,0,VALID,97.5626,VALID,-0.0339617,VALID,20.3064,VALID,133,VALID,0.860899,
2009-01-25, 03:00:00,VALID,915.852,VALID,0,VALID,97.4901,VALID,-0.0169808,VALID,20.3223,VALID,139,VALID,0.592586,
2009-01-25, 03:01:00,VALID,915.858,VALID,0,VALID,97.4609,VALID,-0.0509425,VALID,20.3323,VALID,141,VALID,0.566602,
2009-01-25, 03:02:00,VALID,915.858,VALID,0,VALID,97.5168,VALID,0,VALID,20.3583,VALID,145,VALID,0.716463,
2009-01-25, 03:03:00,VALID,915.84,VALID,0,VALID,97.5066,VALID,0,VALID,20.3807,VALID,150,VALID,0.412642,
2009-01-25, 03:04:00,VALID,915.833,VALID,0,VALID,97.5384,VALID,-0.0509425,VALID,20.4007,VALID,149,VALID,1.08884,
2009-01-25, 03:05:00,VALID,915.817,VALID,0,VALID,97.5105,VALID,-0.0509425,VALID,20.4327,VALID,146,VALID,1.04297,
2009-01-25, 03:06:00,VALID,915.805,VALID,0,VALID,97.4176,VALID,-0.0339617,VALID,20.4591,VALID,151,VALID,0.602471,
2009-01-25, 03:07:00,VALID,915.787,VALID,0,VALID,97.3413,VALID,-0.0679233,VALID,20.4756,VALID,134,VALID,0.426235,
2009-01-25, 03:08:00,VALID,915.755,VALID,0,VALID,97.3261,VALID,-0.0339617,VALID,20.4948,VALID,146,VALID,1.53088,
2009-01-25, 03:09:00,VALID,915.737,VALID,0,VALID,97.1633,VALID,-0.0169808,VALID,20.5438,VALID,145,VALID,0.757626,
2009-01-25, 03:10:00,VALID,915.722,VALID,0,VALID,97.0094,VALID,-0.0509425,VALID,20.5697,VALID,143,VALID,0.547045,
2009-01-25, 03:11:00,VALID,915.707,VALID,0,VALID,96.923,VALID,-0.0339617,VALID,20.5732,VALID,139,VALID,0.841319,
2009-01-25, 03:12:00,VALID,915.694,VALID,0,VALID,96.8556,VALID,-0.0339617,VALID,20.583,VALID,143,VALID,0.90439,
2009-01-25, 03:13:00,VALID,915.675,VALID,0,VALID,96.7678,VALID,-0.0169808,VALID,20.5762,VALID,125,VALID,0.678943,
2009-01-25, 03:14:00,VALID,915.667,VALID,0,VALID,96.7488,VALID,-0.0169808,VALID,20.5565,VALID,126,VALID,0.735119,
2009-01-25, 03:15:00,VALID,915.646,VALID,0,VALID,96.7462,VALID,0,VALID,20.5465,VALID,124,VALID,0.843387,
2009-01-25, 03:16:00,VALID,915.643,VALID,0,VALID,96.7424,VALID,-0.0339617,VALID,20.5368,VALID,121,VALID,0.510174,
2009-01-25, 03:17:00,VALID,915.611,VALID,0,VALID,96.8327,VALID,-0.0169808,VALID,20.5173,VALID,124,VALID,0.156428,
2009-01-25, 03:18:00,VALID,915.591,VALID,0,VALID,96.9497,VALID,0,VALID,20.4881,VALID,117,VALID,0.471768,
2009-01-25, 03:19:00,VALID,915.574,VALID,0,VALID,97.0552,VALID,-0.0169808,VALID,20.4721,VALID,127,VALID,0.534307,
2009-01-25, 03:20:00,VALID,915.559,VALID,0,VALID,97.1201,VALID,-0.0679233,VALID,20.4589,VALID,141,VALID,1.1224,
2009-01-25, 03:21:00,VALID,915.545,VALID,0,VALID,97.1239,VALID,-0.0169808,VALID,20.4691,VALID,127,VALID,0.697621,
2009-01-25, 03:22:00,VALID,915.536,VALID,0,VALID,97.143,VALID,-0.0169808,VALID,20.4524,VALID,119,VALID,0.475,
2009-01-25, 03:23:00,VALID,915.522,VALID,0,VALID,97.2104,VALID,-0.0509425,VALID,20.4497,VALID,128,VALID,0.985491,
2009-01-25, 03:24:00,VALID,915.508,VALID,0,VALID,97.2472,VALID,-0.0679233,VALID,20.4437,VALID,125,VALID,1.91797,
2009-01-25, 03:25:00,VALID,915.5,VALID,0,VALID,97.1633,VALID,-0.0849042,VALID,20.4632,VALID,124,VALID,1.05033,
2009-01-25, 03:26:00,VALID,915.483,VALID,0,VALID,97.1391,VALID,-0.0849042,VALID,20.4629,VALID,124,VALID,1.02773,
2009-01-25, 03:27:00,VALID,915.482,VALID,0,VALID,97.1748,VALID,-0.0509425,VALID,20.4462,VALID,127,VALID,0.81582,
2009-01-25, 03:28:00,VALID,915.47,VALID,0,VALID,97.2345,VALID,-0.0509425,VALID,20.4232,VALID,129,VALID,0.928925,
2009-01-25, 03:29:00,VALID,915.465,VALID,0,VALID,97.3413,VALID,0,VALID,20.3972,VALID,131,VALID,0.899346,
2009-01-25, 03:30:00,VALID,915.461,VALID,0,VALID,97.3528,VALID,-0.0169808,VALID,20.4007,VALID,129,VALID,1.1915,
2009-01-25, 03:31:00,VALID,915.469,VALID,0,VALID,97.2968,VALID,-0.0169808,VALID,20.414,VALID,126,VALID,1.42467,
2009-01-25, 03:32:00,VALID,915.469,VALID,0,VALID,97.2867,VALID,-0.0169808,VALID,20.4002,VALID,124,VALID,0.402716,
2009-01-25, 03:33:00,VALID,915.456,VALID,0,VALID,97.3642,VALID,-0.0339617,VALID,20.3807,VALID,138,VALID,0.692294,
2009-01-25, 03:34:00,VALID,915.463,VALID,0,VALID,97.4456,VALID,-0.0509425,VALID,20.355,VALID,122,VALID,0.502477,
2009-01-25, 03:35:00,VALID,915.47,VALID,0,VALID,97.4583,VALID,0,VALID,20.3555,VALID,125,VALID,1.35975,